Project,Study,Ord_Occ,Event_Num,Cast_ID,Date_Time_UTC,Date_Time_PST,Lat_Dec,Lon_Dec,Sta_ID,Line,Sta,Depth,Pressure,PrQ,Temp1,Temp1Q,Temp2,Temp2Q,TempAve,Salt1,Salt1Q,Salt1_Corr,Salt2,Salt2Q,Salt2_Corr,SaltAve_Corr,Ox1,Ox1Q,Ox1_CruiseCorr,Ox1_StaCorr,Ox2,Ox2Q,Ox2_CruiseCorr,Ox2_StaCorr,OxAve_StaCorr,Ox1uM,Ox1uM_CruiseCorr,Ox1uM_StaCorr,Ox2uM,Ox2uM_CruiseCorr,Ox2uM_StaCorr,OxAveuM_StaCorr,FluorV,FluorQ,EstChl_CruiseCorr,EstChl_StaCorr,ISUSV,ISUSQ,EstNO3_CruiseCorr,EstNO3_StaCorr,SigThetaTS1,SigThetaTS1Q,SigThetaTS2,SigThetaTS2Q,BAT,XMiss,TransQ,pH,pHQ,SPAR,SPARQ,PAR,PARQ,PoT1,PoT2,DynHt,SVA,OxSat1,OxSat2,BTL_Depth,BTL_Temp,SaltB,OxB,OxBuM,Chl-a,Phaeo,NO3,NO2,NH4,PO4,SIL
CalCOFI,2105SH,016,,2105_016u,07-May-2021 14:23:10,07-May-2021 06:23:10,31.75113,-121.31618,090.0 080.0,090.0,080.0,515.000,519.254,,6.0799,,6.0802,,6.0801,34.3126,,34.3138,34.3139,,34.3158,34.3148,0.2536,,0.3313,0.2846,0.2608,,0.3295,0.2817,0.2832,11.029,14.0285,13.7095,11.341,17.0399,13.3038,13.5067,0.0356,,,,0.5827,,0.0000,,27.0051,,27.0061,,,,,,,,,,,6.0343,6.0346,0.8732,111.691,3.661,3.766,,,,,,,,,,,,
CalCOFI,2105SH,016,,2105_016u,07-May-2021 14:23:12,07-May-2021 06:23:12,31.75115,-121.31618,090.0 080.0,090.0,080.0,514.000,518.244,,6.0974,,6.0966,,6.0970,34.3109,,34.3121,34.3120,,34.3139,34.3130,0.2553,,0.3331,0.2864,0.2607,,0.3294,0.2816,0.2840,11.103,14.1059,13.7869,11.335,17.1198,13.2976,13.5423,0.0351,,,,0.5826,,0.0000,,27.0015,,27.0025,,,,,,,,,,,6.0518,6.0511,0.8732,112.035,3.687,3.764,514,6.097,34.3068,0.280,12.18,,,40.26,0.00,0.00,3.14,77.05
CalCOFI,2105SH,016,,2105_016u,07-May-2021 14:23:28,07-May-2021 06:23:28,31.75112,-121.31623,090.0 080.0,090.0,080.0,513.000,517.234,,6.1000,,6.0999,,6.1000,34.3108,,34.3120,34.3116,,34.3135,34.3128,0.2522,,0.3299,0.2832,0.2609,,0.3296,0.2818,0.2825,10.966,13.9627,13.6436,11.343,16.9718,13.3059,13.4748,0.0357,,,,0.5825,,0.0000,,27.0011,,27.0018,,,,,,,,,,,6.0546,6.0544,0.8744,112.064,3.642,3.767,,,,,,,,,,,,
CalCOFI,2105SH,016,,2105_016u,07-May-2021 14:23:37,07-May-2021 06:23:37,31.75112,-121.31627,090.0 080.0,090.0,080.0,512.000,516.225,,6.1002,,6.1005,,6.1004,34.3108,,34.3120,34.3114,,34.3133,34.3127,0.2550,,0.3328,0.2861,0.2609,,0.3296,0.2818,0.2840,11.089,14.0912,13.7722,11.347,17.1047,13.3100,13.5411,0.0358,,,,0.5824,,0.0000,,27.0011,,27.0015,,,,,,,,,,,6.0548,6.0551,0.8749,112.054,3.683,3.768,,,,,,,,,,,,
CalCOFI,2105SH,016,,2105_016u,07-May-2021 14:23:39,07-May-2021 06:23:39,31.75110,-121.31628,090.0 080.0,090.0,080.0,511.000,515.215,,6.1008,,6.1012,,6.1010,34.3105,,34.3117,34.3113,,34.3132,34.3125,0.2577,,0.3356,0.2889,0.2609,,0.3296,0.2818,0.2854,11.208,14.2156,13.8967,11.345,17.2332,13.3079,13.6023,0.0364,,,,0.5825,,0.0000,,27.0008,,27.0013,,,,,,,,,,,6.0556,6.0559,0.8749,112.070,3.722,3.768,,,,,,,,,,,,
CalCOFI,2105SH,016,,2105_016u,07-May-2021 14:23:40,07-May-2021 06:23:40,31.75110,-121.31628,090.0 080.0,090.0,080.0,510.000,514.206,,6.1022,,6.1031,,6.1027,34.3103,,34.3115,34.3112,,34.3131,34.3123,0.2571,,0.3350,0.2883,0.2608,,0.3295,0.2817,0.2850,11.182,14.1885,13.8695,11.343,17.2051,13.3059,13.5877,0.0363,,,,0.5825,,0.0000,,27.0004,,27.0010,,,,,,,,,,,6.0570,6.0579,0.8749,112.090,3.714,3.767,,,,,,,,,,,,
CalCOFI,2105SH,016,,2105_016u,07-May-2021 14:23:41,07-May-2021 06:23:41,31.75110,-121.31628,090.0 080.0,090.0,080.0,509.000,513.196,,6.1022,,6.1039,,6.1031,34.3103,,34.3115,34.3110,,34.3129,34.3122,0.2593,,0.3373,0.2906,0.2608,,0.3295,0.2817,0.2862,11.274,14.2846,13.9657,11.341,17.3045,13.3038,13.6348,0.0356,,,,0.5825,,0.0000,,27.0004,,27.0008,,,,,,,,,,,6.0571,6.0588,0.8749,112.080,3.744,3.767,,,,,,,,,,,,
CalCOFI,2105SH,016,,2105_016u,07-May-2021 14:23:42,07-May-2021 06:23:42,31.75110,-121.31628,090.0 080.0,090.0,080.0,508.000,512.187,,6.1037,,6.1040,,6.1039,34.3100,,34.3112,34.3111,,34.3130,34.3121,0.2580,,0.3359,0.2893,0.2610,,0.3297,0.2820,0.2857,11.220,14.2282,13.9092,11.348,17.2461,13.3110,13.6101,0.0361,,,,0.5826,,0.0000,,27.0000,,27.0008,,,,,,,,,,,6.0586,6.0590,0.8749,112.104,3.726,3.769,,,,,,,,,,,,
CalCOFI,2105SH,016,,2105_016u,07-May-2021 14:23:43,07-May-2021 06:23:43,31.75110,-121.31628,090.0 080.0,090.0,080.0,507.000,511.177,,6.1037,,6.1050,,6.1044,34.3101,,34.3113,34.3110,,34.3129,34.3121,0.2573,,0.3352,0.2885,0.2649,,0.3338,0.2860,0.2873,11.187,14.1937,13.8747,11.522,17.2105,13.4909,13.6828,0.0355,,,,0.5826,,0.0000,,27.0000,,27.0005,,,,,,,,,,,6.0588,6.0601,0.8749,112.087,3.716,3.827,,,,,,,,,,,,
CalCOFI,2105SH,016,,2105_016u,07-May-2021 14:23:43,07-May-2021 06:23:43,31.75110,-121.31628,090.0 080.0,090.0,080.0,506.000,510.168,,6.1047,,6.1056,,6.1052,34.3101,,34.3113,34.3110,,34.3129,34.3121,0.2572,,0.3351,0.2884,0.2698,,0.3389,0.2911,0.2898,11.185,14.1916,13.8726,11.731,17.2083,13.7069,13.7898,0.0357,,,,0.5827,,0.0000,,26.9999,,27.0005,,,,,,,,,,,6.0598,6.0608,0.8749,112.088,3.715,3.897,,,,,,,,,,,,
CalCOFI,2105SH,016,,2105_016u,07-May-2021 14:23:45,07-May-2021 06:23:45,31.75110,-121.31628,090.0 080.0,090.0,080.0,505.000,509.159,,6.1069,,6.1092,,6.1081,34.3103,,34.3115,34.3113,,34.3132,34.3124,0.2572,,0.3351,0.2884,0.2673,,0.3363,0.2885,0.2885,11.183,14.1895,13.8705,11.624,17.2062,13.5963,13.7334,0.0354,,,,0.5828,,0.0000,,26.9997,,27.0003,,,,,,,,,,,6.0621,6.0644,0.8749,112.090,3.715,3.861,,,,,,,,,,,,
CalCOFI,2105SH,016,,2105_016u,07-May-2021 14:23:46,07-May-2021 06:23:46,31.75110,-121.31630,090.0 080.0,090.0,080.0,504.000,508.149,,6.1125,,6.1227,,6.1176,34.3102,,34.3114,34.3112,,34.3131,34.3123,0.2571,,0.3350,0.2883,0.2646,,0.3335,0.2857,0.2870,11.180,14.1864,13.8674,11.507,17.2029,13.4754,13.6714,0.0354,,,,0.5830,,0.0000,,26.9990,,26.9985,,,,,,,,,,,6.0678,6.0780,0.8749,112.154,3.714,3.824,,,,,,,,,,,,
CalCOFI,2105SH,016,,2105_016u,07-May-2021 14:23:47,07-May-2021 06:23:47,31.75110,-121.31630,090.0 080.0,090.0,080.0,503.000,507.140,,6.1130,,6.1248,,6.1189,34.3101,,34.3113,34.3110,,34.3129,34.3121,0.2585,,0.3364,0.2898,0.2647,,0.3336,0.2858,0.2878,11.240,14.2491,13.9301,11.510,17.2677,13.4785,13.7043,0.0354,,,,0.5831,,0.0000,,26.9988,,26.9981,,,,,,,,,,,6.0684,6.0802,0.8749,112.154,3.734,3.825,,,,,,,,,,,,
CalCOFI,2105SH,016,,2105_016u,07-May-2021 14:23:48,07-May-2021 06:23:48,31.75110,-121.31630,090.0 080.0,090.0,080.0,502.000,506.130,,6.1190,,6.1339,,6.1265,34.3101,,34.3113,34.3107,,34.3126,34.3120,0.2655,,0.3438,0.2971,0.2646,,0.3335,0.2857,0.2914,11.544,14.5669,14.2481,11.508,17.5961,13.4764,13.8623,0.0356,,,,0.5833,,0.0000,,26.9980,,26.9967,,,,,,,,,,,6.0744,6.0893,0.8749,112.223,3.835,3.825,,,,,,,,,,,,
CalCOFI,2105SH,016,,2105_016u,07-May-2021 14:23:49,07-May-2021 06:23:49,31.75110,-121.31630,090.0 080.0,090.0,080.0,501.000,505.121,,6.1285,,6.1408,,6.1347,34.3103,,34.3115,34.3111,,34.3130,34.3123,0.2652,,0.3434,0.2968,0.2702,,0.3393,0.2915,0.2942,11.532,14.5544,14.2355,11.751,17.5831,13.7276,13.9816,0.0359,,,,0.5834,,0.0000,,26.9970,,26.9960,,,,,,,,,,,6.0840,6.0963,0.8749,112.318,3.832,3.906,,,,,,,,,,,,
CalCOFI,2105SH,016,,2105_016u,07-May-2021 14:23:49,07-May-2021 06:23:49,31.75110,-121.31630,090.0 080.0,090.0,080.0,500.000,504.111,,6.1623,,6.1450,,6.1537,34.3101,,34.3113,34.3138,,34.3157,34.3135,0.2612,,0.3393,0.2926,0.2757,,0.3450,0.2972,0.2949,11.360,14.3745,14.0556,11.988,17.3973,13.9726,14.0141,0.0360,,,,0.5836,,0.0000,,26.9925,,26.9977,,,,,,,,,,,6.1178,6.1005,0.8749,112.767,3.778,3.986,,,,,,,,,,,,
CalCOFI,2105SH,016,,2105_016u,07-May-2021 14:23:50,07-May-2021 06:23:50,31.75110,-121.31631,090.0 080.0,090.0,080.0,499.000,503.102,,6.1654,,6.1717,,6.1686,34.3118,,34.3130,34.3133,,34.3152,34.3141,0.2621,,0.3402,0.2936,0.2691,,0.3381,0.2904,0.2920,11.399,14.4153,14.0964,11.704,17.4395,13.6790,13.8877,0.0365,,,,0.5839,,0.0000,,26.9934,,26.9938,,,,,,,,,,,6.1210,6.1272,0.8749,112.669,3.791,3.894,,,,,,,,,,,,
CalCOFI,2105SH,016,,2105_016u,07-May-2021 14:23:52,07-May-2021 06:23:52,31.75110,-121.31632,090.0 080.0,090.0,080.0,498.000,502.092,,6.1774,,6.1840,,6.1807,34.3118,,34.3130,34.3129,,34.3148,34.3139,0.2684,,0.3468,0.3002,0.2786,,0.3480,0.3002,0.3002,11.672,14.7007,14.3820,12.113,17.7343,14.1018,14.2419,0.0353,,,,0.5842,,0.0000,,26.9919,,26.9919,,,,,,,,,,,6.1330,6.1395,0.8749,112.806,3.883,4.031,,,,,,,,,,,,
CalCOFI,2105SH,016,,2105_016u,07-May-2021 14:23:53,07-May-2021 06:23:53,31.75110,-121.31632,090.0 080.0,090.0,080.0,497.000,501.083,,6.1807,,6.1880,,6.1844,34.3114,,34.3126,34.3125,,34.3144,34.3135,0.2676,,0.3460,0.2993,0.2753,,0.3446,0.2968,0.2981,11.637,14.6641,14.3454,11.973,17.6965,13.9571,14.1513,0.0361,,,,0.5845,,0.0000,,26.9911,,26.9911,,,,,,,,,,,6.1363,6.1437,0.8749,112.873,3.872,3.984,,,,,,,,,,,,
CalCOFI,2105SH,016,,2105_016u,07-May-2021 14:23:54,07-May-2021 06:23:54,31.75110,-121.31632,090.0 080.0,090.0,080.0,496.000,500.074,,6.1827,,6.1959,,6.1893,34.3113,,34.3125,34.3116,,34.3135,34.3130,0.2653,,0.3436,0.2969,0.2727,,0.3419,0.2941,0.2955,11.538,14.5606,14.2418,11.860,17.5896,13.8403,14.0411,0.0363,,,,0.5847,,0.0000,,26.9908,,26.9894,,,,,,,,,,,6.1385,6.1516,0.8749,112.889,3.839,3.948,,,,,,,,,,,,
CalCOFI,2105SH,016,,2105_016u,07-May-2021 14:23:55,07-May-2021 06:23:55,31.75110,-121.31632,090.0 080.0,090.0,080.0,495.000,499.064,,6.1868,,6.2011,,6.1940,34.3118,,34.3130,34.3112,,34.3131,34.3131,0.2653,,0.3436,0.2969,0.2727,,0.3419,0.2941,0.2955,11.536,14.5585,14.2397,11.857,17.5874,13.8372,14.0385,0.0351,,,,0.5849,,0.0000,,26.9906,,26.9884,,,,,,,,,,,6.1426,6.1569,0.8749,112.897,3.839,3.947,,,,,,,,,,,,
CalCOFI,2105SH,016,,2105_016u,07-May-2021 14:23:55,07-May-2021 06:23:55,31.75110,-121.31632,090.0 080.0,090.0,080.0,494.000,498.055,,6.1896,,6.2000,,6.1948,34.3115,,34.3127,34.3111,,34.3130,34.3129,0.2652,,0.3434,0.2968,0.2727,,0.3419,0.2941,0.2955,11.533,14.5554,14.2366,11.862,17.5842,13.8424,14.0395,0.0356,,,,0.5852,,0.0000,,26.9900,,26.9884,,,,,,,,,,,6.1455,6.1559,0.8749,112.943,3.838,3.949,,,,,,,,,,,,
CalCOFI,2105SH,016,,2105_016u,07-May-2021 14:23:56,07-May-2021 06:23:56,31.75110,-121.31632,090.0 080.0,090.0,080.0,493.000,497.045,,6.2025,,6.2023,,6.2024,34.3095,,34.3107,34.3117,,34.3136,34.3122,0.2674,,0.3457,0.2991,0.2790,,0.3484,0.3006,0.2999,11.630,14.6568,14.3380,12.132,17.6889,14.1215,14.2298,0.0355,,,,0.5854,,0.0000,,26.9868,,26.9886,,,,,,,,,,,6.1585,6.1583,0.8749,113.249,3.871,4.039,,,,,,,,,,,,
CalCOFI,2105SH,016,,2105_016u,07-May-2021 14:23:57,07-May-2021 06:23:57,31.75110,-121.31634,090.0 080.0,090.0,080.0,492.000,496.036,,6.2045,,6.2141,,6.2093,34.3096,,34.3108,34.3104,,34.3123,34.3116,0.2742,,0.3529,0.3063,0.2842,,0.3538,0.3060,0.3062,11.924,14.9641,14.6455,12.357,18.0065,14.3540,14.4998,0.0365,,,,0.5856,,0.0000,,26.9866,,26.9860,,,,,,,,,,,6.1606,6.1701,0.8749,113.255,3.970,4.115,,,,,,,,,,,,
CalCOFI,2105SH,016,,2105_016u,07-May-2021 14:23:58,07-May-2021 06:23:58,31.75110,-121.31634,090.0 080.0,090.0,080.0,491.000,495.026,,6.2150,,6.2180,,6.2165,34.3086,,34.3098,34.3100,,34.3119,34.3109,0.2723,,0.3509,0.3043,0.2776,,0.3469,0.2992,0.3018,11.843,14.8795,14.5608,12.074,17.9190,14.0615,14.3112,0.0354,,,,0.5859,,0.0000,,26.9845,,26.9852,,,,,,,,,,,6.1711,6.1741,0.8749,113.453,3.944,4.021,,,,,,,,,,,,
CalCOFI,2105SH,016,,2105_016u,07-May-2021 14:23:59,07-May-2021 06:23:59,31.75110,-121.31634,090.0 080.0,090.0,080.0,490.000,494.017,,6.2186,,6.2171,,6.2179,34.3083,,34.3095,34.3096,,34.3115,34.3105,0.2712,,0.3497,0.3031,0.2766,,0.3459,0.2981,0.3006,11.794,14.8282,14.5096,12.028,17.8661,14.0139,14.2618,0.0365,,,,0.5861,,0.0000,,26.9837,,26.9850,,,,,,,,,,,6.1748,6.1733,0.8749,113.511,3.928,4.005,,,,,,,,,,,,
CalCOFI,2105SH,016,,2105_016u,07-May-2021 14:23:59,07-May-2021 06:23:59,31.75110,-121.31635,090.0 080.0,090.0,080.0,489.000,493.008,,6.2164,,6.2185,,6.2175,34.3085,,34.3097,34.3094,,34.3113,34.3105,0.2743,,0.3530,0.3064,0.2766,,0.3459,0.2981,0.3023,11.928,14.9683,14.6497,12.026,18.0108,14.0119,14.3308,0.0366,,,,0.5864,,0.0000,,26.9842,,26.9847,,,,,,,,,,,6.1727,6.1748,0.8749,113.450,3.972,4.005,,,,,,,,,,,,
CalCOFI,2105SH,016,,2105_016u,07-May-2021 14:24:00,07-May-2021 06:24:00,31.75110,-121.31636,090.0 080.0,090.0,080.0,488.000,491.998,,6.2201,,6.2233,,6.2217,34.3077,,34.3089,34.3083,,34.3102,34.3096,0.2765,,0.3553,0.3087,0.2774,,0.3467,0.2990,0.3039,12.023,15.0676,14.7491,12.063,18.1134,14.0501,14.3996,0.0357,,,,0.5866,,0.0000,,26.9831,,26.9831,,,,,,,,,,,6.1765,6.1796,0.8749,113.542,4.004,4.017,,,,,,,,,,,,
CalCOFI,2105SH,016,,2105_016u,07-May-2021 14:24:01,07-May-2021 06:24:01,31.75110,-121.31636,090.0 080.0,090.0,080.0,487.000,490.989,,6.2191,,6.2225,,6.2208,34.3084,,34.3096,34.3088,,34.3107,34.3102,0.2795,,0.3584,0.3118,0.2837,,0.3533,0.3055,0.3087,12.153,15.2035,14.8850,12.337,18.2538,14.3334,14.6092,0.0360,,,,0.5869,,0.0000,,26.9837,,26.9836,,,,,,,,,,,6.1756,6.1790,0.8749,113.469,4.047,4.109,,,,,,,,,,,,
CalCOFI,2105SH,016,,2105_016u,07-May-2021 14:24:01,07-May-2021 06:24:01,31.75110,-121.31636,090.0 080.0,090.0,080.0,486.000,489.979,,6.2212,,6.2233,,6.2223,34.3082,,34.3094,34.3087,,34.3106,34.3100,0.2748,,0.3535,0.3069,0.2882,,0.3579,0.3102,0.3086,11.949,14.9903,14.6717,12.532,18.0335,14.5349,14.6033,0.0350,,,,0.5871,,0.0000,,26.9833,,26.9835,,,,,,,,,,,6.1778,6.1799,0.8749,113.499,3.979,4.174,,,,,,,,,,,,
CalCOFI,2105SH,016,,2105_016u,07-May-2021 14:24:02,07-May-2021 06:24:02,31.75110,-121.31636,090.0 080.0,090.0,080.0,485.000,488.970,,6.2296,,6.2227,,6.2262,34.3069,,34.3081,34.3091,,34.3110,34.3096,0.2745,,0.3532,0.3066,0.2835,,0.3530,0.3053,0.3060,11.935,14.9756,14.6570,12.327,18.0183,14.3230,14.4900,0.0360,,,,0.5874,,0.0000,,26.9812,,26.9838,,,,,,,,,,,6.1862,6.1794,0.8749,113.694,3.975,4.105,,,,,,,,,,,,
CalCOFI,2105SH,016,,2105_016u,07-May-2021 14:24:03,07-May-2021 06:24:03,31.75110,-121.31636,090.0 080.0,090.0,080.0,484.000,487.961,,6.2301,,6.2309,,6.2305,34.3074,,34.3086,34.3088,,34.3107,34.3097,0.2818,,0.3608,0.3143,0.2883,,0.3580,0.3103,0.3123,12.255,15.3102,14.9917,12.536,18.3639,14.5391,14.7654,0.0365,,,,0.5877,,0.0000,,26.9815,,26.9825,,,,,,,,,,,6.1868,6.1876,0.8749,113.649,4.082,4.176,,,,,,,,,,,,
CalCOFI,2105SH,016,,2105_016u,07-May-2021 14:24:05,07-May-2021 06:24:05,31.75110,-121.31636,090.0 080.0,090.0,080.0,483.000,486.951,,6.2704,,6.2651,,6.2678,34.3030,,34.3042,34.3060,,34.3079,34.3061,0.2875,,0.3668,0.3202,0.2948,,0.3648,0.3170,0.3186,12.504,15.5705,15.2521,12.821,18.6329,14.8337,15.0429,0.0365,,,,0.5884,,0.0000,,26.9728,,26.9759,,,,,,,,,,,6.2271,6.2218,0.8749,114.494,4.169,4.274,,,,,,,,,,,,
CalCOFI,2105SH,016,,2105_016u,07-May-2021 14:24:06,07-May-2021 06:24:06,31.75110,-121.31637,090.0 080.0,090.0,080.0,482.000,485.942,,6.2668,,6.2750,,6.2709,34.3032,,34.3044,34.3033,,34.3052,34.3048,0.2837,,0.3628,0.3162,0.2929,,0.3628,0.3150,0.3156,12.337,15.3959,15.0775,12.736,18.4525,14.7458,14.9117,0.0354,,,,0.5890,,0.0000,,26.9735,,26.9725,,,,,,,,,,,6.2236,6.2317,0.8749,114.419,4.113,4.247,,,,,,,,,,,,
CalCOFI,2105SH,016,,2105_016u,07-May-2021 14:24:07,07-May-2021 06:24:07,31.75110,-121.31638,090.0 080.0,090.0,080.0,481.000,484.933,,6.2737,,6.2779,,6.2758,34.3003,,34.3015,34.3006,,34.3025,34.3020,0.2894,,0.3688,0.3222,0.2999,,0.3700,0.3223,0.3223,12.584,15.6541,15.3358,13.041,18.7193,15.0611,15.1985,0.0354,,,,0.5894,,0.0000,,26.9703,,26.9700,,,,,,,,,,,6.2305,6.2347,0.8749,114.708,4.196,4.349,,,,,,,,,,,,
CalCOFI,2105SH,016,,2105_016u,07-May-2021 14:24:08,07-May-2021 06:24:08,31.75110,-121.31638,090.0 080.0,090.0,080.0,480.000,483.923,,6.2703,,6.2736,,6.2720,34.2998,,34.3010,34.2992,,34.3011,34.3011,0.2925,,0.3720,0.3255,0.2953,,0.3653,0.3175,0.3215,12.721,15.7973,15.4791,12.841,18.8672,14.8544,15.1668,0.0358,,,,0.5898,,0.0000,,26.9703,,26.9694,,,,,,,,,,,6.2272,6.2306,0.8749,114.688,4.241,4.281,,,,,,,,,,,,
CalCOFI,2105SH,016,,2105_016u,07-May-2021 14:24:09,07-May-2021 06:24:09,31.75110,-121.31640,090.0 080.0,090.0,080.0,479.000,482.914,,6.2707,,6.2696,,6.2702,34.2982,,34.2994,34.2999,,34.3018,34.3006,0.2874,,0.3667,0.3201,0.2946,,0.3645,0.3168,0.3185,12.499,15.5653,15.2469,12.812,18.6275,14.8244,15.0357,0.0355,,,,0.5902,,0.0000,,26.9689,,26.9705,,,,,,,,,,,6.2278,6.2266,0.8749,114.803,4.167,4.271,,,,,,,,,,,,
CalCOFI,2105SH,016,,2105_016u,07-May-2021 14:24:10,07-May-2021 06:24:10,31.75110,-121.31640,090.0 080.0,090.0,080.0,478.000,481.905,,6.2701,,6.2708,,6.2705,34.2980,,34.2992,34.2989,,34.3008,34.3000,0.2896,,0.3690,0.3224,0.3031,,0.3734,0.3256,0.3240,12.594,15.6646,15.3463,13.180,18.7301,15.2048,15.2756,0.0366,,,,0.5907,,0.0000,,26.9689,,26.9695,,,,,,,,,,,6.2272,6.2279,0.8749,114.791,4.199,4.394,,,,,,,,,,,,
CalCOFI,2105SH,016,,2105_016u,07-May-2021 14:24:11,07-May-2021 06:24:11,31.75110,-121.31640,090.0 080.0,090.0,080.0,477.000,480.895,,6.2717,,6.2717,,6.2717,34.2974,,34.2986,34.2980,,34.2999,34.2993,0.2965,,0.3762,0.3297,0.2991,,0.3692,0.3215,0.3256,12.894,15.9782,15.6600,13.007,19.0541,15.0260,15.3430,0.0359,,,,0.5912,,0.0000,,26.9682,,26.9686,,,,,,,,,,,6.2289,6.2289,0.8749,114.846,4.299,4.337,,,,,,,,,,,,
CalCOFI,2105SH,016,,2105_016u,07-May-2021 14:24:12,07-May-2021 06:24:12,31.75110,-121.31640,090.0 080.0,090.0,080.0,476.000,479.886,,6.2711,,6.2689,,6.2700,34.2970,,34.2982,34.2956,,34.2975,34.2979,0.2918,,0.3713,0.3248,0.2985,,0.3686,0.3208,0.3228,12.688,15.7628,15.4446,12.979,18.8316,14.9970,15.2208,0.0363,,,,0.5918,,0.0000,,26.9680,,26.9671,,,,,,,,,,,6.2284,6.2262,0.8749,114.852,4.230,4.327,,,,,,,,,,,,
CalCOFI,2105SH,016,,2105_016u,07-May-2021 14:24:13,07-May-2021 06:24:13,31.75110,-121.31640,090.0 080.0,090.0,080.0,475.000,478.877,,6.2694,,6.2681,,6.2688,34.2954,,34.2966,34.2934,,34.2953,34.2960,0.2916,,0.3711,0.3245,0.3083,,0.3787,0.3310,0.3278,12.679,15.7534,15.4352,13.409,18.8219,15.4415,15.4384,0.0359,,,,0.5923,,0.0000,,26.9669,,26.9655,,,,,,,,,,,6.2268,6.2255,0.8749,114.935,4.227,4.470,,,,,,,,,,,,
CalCOFI,2105SH,016,,2105_016u,07-May-2021 14:24:14,07-May-2021 06:24:14,31.75110,-121.31641,090.0 080.0,090.0,080.0,474.000,477.867,,6.2686,,6.2684,,6.2685,34.2944,,34.2956,34.2934,,34.2953,34.2955,0.2955,,0.3751,0.3286,0.3058,,0.3761,0.3284,0.3285,12.848,15.9301,15.6119,13.297,19.0044,15.3257,15.4688,0.0364,,,,0.5928,,0.0000,,26.9662,,26.9654,,,,,,,,,,,6.2261,6.2259,0.8749,114.986,4.283,4.433,,,,,,,,,,,,
CalCOFI,2105SH,016,,2105_016u,07-May-2021 14:24:15,07-May-2021 06:24:15,31.75110,-121.31642,090.0 080.0,090.0,080.0,473.000,476.858,,6.2687,,6.2707,,6.2697,34.2947,,34.2959,34.2928,,34.2947,34.2953,0.3015,,0.3814,0.3349,0.3068,,0.3772,0.3295,0.3322,13.113,16.2071,15.8891,13.344,19.2906,15.3743,15.6317,0.0354,,,,0.5932,,0.0000,,26.9664,,26.9647,,,,,,,,,,,6.2263,6.2283,0.8749,114.952,4.372,4.449,,,,,,,,,,,,
CalCOFI,2105SH,016,,2105_016u,07-May-2021 14:24:16,07-May-2021 06:24:16,31.75110,-121.31642,090.0 080.0,090.0,080.0,472.000,475.849,,6.2688,,6.2726,,6.2707,34.2942,,34.2954,34.2936,,34.2955,34.2955,0.2983,,0.3781,0.3316,0.3127,,0.3833,0.3356,0.3336,12.973,16.0608,15.7426,13.597,19.1394,15.6358,15.6892,0.0358,,,,0.5936,,0.0000,,26.9660,,26.9650,,,,,,,,,,,6.2265,6.2302,0.8749,114.978,4.325,4.533,,,,,,,,,,,,
CalCOFI,2105SH,016,,2105_016u,07-May-2021 14:24:17,07-May-2021 06:24:17,31.75110,-121.31642,090.0 080.0,090.0,080.0,471.000,474.839,,6.2765,,6.2837,,6.2801,34.2922,,34.2934,34.2921,,34.2940,34.2937,0.3032,,0.3832,0.3367,0.3145,,0.3852,0.3374,0.3371,13.184,16.2814,15.9633,13.677,19.3673,15.7185,15.8409,0.0356,,,,0.5941,,0.0000,,26.9634,,26.9624,,,,,,,,,,,6.2342,6.2414,0.8749,115.210,4.396,4.561,,,,,,,,,,,,
CalCOFI,2105SH,016,,2105_016u,07-May-2021 14:24:19,07-May-2021 06:24:19,31.75110,-121.31642,090.0 080.0,090.0,080.0,470.000,473.830,,6.3048,,6.3094,,6.3071,34.2875,,34.2887,34.2882,,34.2901,34.2894,0.3102,,0.3905,0.3441,0.3186,,0.3894,0.3417,0.3429,13.490,16.6012,16.2834,13.857,19.6977,15.9046,16.0940,0.0355,,,,0.5950,,0.0000,,26.9560,,26.9560,,,,,,,,,,,6.2626,6.2671,0.8749,115.926,4.501,4.624,,,,,,,,,,,,
CalCOFI,2105SH,016,,2105_016u,07-May-2021 14:24:20,07-May-2021 06:24:20,31.75110,-121.31644,090.0 080.0,090.0,080.0,469.000,472.821,,6.3096,,6.3137,,6.3117,34.2868,,34.2880,34.2877,,34.2896,34.2888,0.3094,,0.3897,0.3432,0.3143,,0.3850,0.3372,0.3402,13.454,16.5636,16.2457,13.668,19.6589,15.7092,15.9775,0.0357,,,,0.5957,,0.0000,,26.9548,,26.9550,,,,,,,,,,,6.2674,6.2715,0.8749,116.028,4.489,4.561,,,,,,,,,,,,
CalCOFI,2105SH,016,,2105_016u,07-May-2021 14:24:21,07-May-2021 06:24:21,31.75110,-121.31644,090.0 080.0,090.0,080.0,468.000,471.811,,6.3107,,6.3228,,6.3168,34.2879,,34.2891,34.2881,,34.2900,34.2896,0.3133,,0.3937,0.3473,0.3135,,0.3841,0.3364,0.3419,13.624,16.7413,16.4235,13.633,19.8425,15.6731,16.0483,0.0363,,,,0.5961,,0.0000,,26.9556,,26.9542,,,,,,,,,,,6.2686,6.2807,0.8749,115.942,4.546,4.550,,,,,,,,,,,,
CalCOFI,2105SH,016,,2105_016u,07-May-2021 14:24:22,07-May-2021 06:24:22,31.75110,-121.31644,090.0 080.0,090.0,080.0,467.000,470.802,,6.3194,,6.3289,,6.3242,34.2879,,34.2891,34.2886,,34.2905,34.2898,0.3111,,0.3914,0.3450,0.3159,,0.3866,0.3389,0.3420,13.528,16.6410,16.3231,13.736,19.7388,15.7795,16.0513,0.0358,,,,0.5965,,0.0000,,26.9545,,26.9538,,,,,,,,,,,6.2774,6.2869,0.8749,116.045,4.515,4.585,,,,,,,,,,,,
CalCOFI,2105SH,016,,2105_016u,07-May-2021 14:24:23,07-May-2021 06:24:23,31.75108,-121.31646,090.0 080.0,090.0,080.0,466.000,469.793,,6.3334,,6.3444,,6.3389,34.2882,,34.2894,34.2903,,34.2922,34.2908,0.3090,,0.3893,0.3428,0.3222,,0.3931,0.3454,0.3441,13.437,16.5458,16.2279,14.013,19.6405,16.0659,16.1469,0.0362,,,,0.5969,,0.0000,,26.9529,,26.9531,,,,,,,,,,,6.2914,6.3024,0.8749,116.194,4.486,4.679,,,,,,,,,,,,
CalCOFI,2105SH,016,,2105_016u,07-May-2021 14:24:24,07-May-2021 06:24:24,31.75108,-121.31646,090.0 080.0,090.0,080.0,465.000,468.784,,6.3453,,6.3627,,6.3540,34.2885,,34.2897,34.2924,,34.2943,34.2920,0.3088,,0.3890,0.3426,0.3213,,0.3922,0.3445,0.3436,13.429,16.5375,16.2196,13.972,19.6319,16.0235,16.1216,0.0361,,,,0.5973,,0.0000,,26.9515,,26.9523,,,,,,,,,,,6.3034,6.3207,0.8749,116.322,4.484,4.668,,,,,,,,,,,,
CalCOFI,2105SH,016,,2105_016u,07-May-2021 14:24:25,07-May-2021 06:24:25,31.75110,-121.31646,090.0 080.0,090.0,080.0,464.000,467.774,,6.3524,,6.3688,,6.3606,34.2896,,34.2908,34.2923,,34.2942,34.2925,0.3100,,0.3903,0.3439,0.3174,,0.3882,0.3404,0.3422,13.483,16.5939,16.2760,13.805,19.6902,15.8509,16.0635,0.0368,,,,0.5977,,0.0000,,26.9514,,26.9515,,,,,,,,,,,6.3106,6.3269,0.8749,116.324,4.503,4.613,,,,,,,,,,,,
CalCOFI,2105SH,016,,2105_016u,07-May-2021 14:24:25,07-May-2021 06:24:25,31.75110,-121.31646,090.0 080.0,090.0,080.0,463.000,466.765,,6.3628,,6.3765,,6.3697,34.2900,,34.2912,34.2920,,34.2939,34.2926,0.3128,,0.3932,0.3468,0.3174,,0.3882,0.3404,0.3436,13.604,16.7204,16.4026,13.802,19.8209,15.8477,16.1252,0.0361,,,,0.5980,,0.0000,,26.9504,,26.9503,,,,,,,,,,,6.3210,6.3346,0.8749,116.414,4.545,4.613,,,,,,,,,,,,
CalCOFI,2105SH,016,,2105_016u,07-May-2021 14:24:26,07-May-2021 06:24:26,31.75110,-121.31646,090.0 080.0,090.0,080.0,462.000,465.756,,6.3648,,6.3724,,6.3686,34.2906,,34.2918,34.2922,,34.2941,34.2930,0.3160,,0.3966,0.3502,0.3174,,0.3882,0.3404,0.3453,13.740,16.8626,16.5448,13.802,19.9677,15.8477,16.1963,0.0362,,,,0.5983,,0.0000,,26.9507,,26.9509,,,,,,,,,,,6.3230,6.3306,0.8749,116.379,4.590,4.612,,,,,,,,,,,,
CalCOFI,2105SH,016,,2105_016u,07-May-2021 14:24:27,07-May-2021 06:24:27,31.75110,-121.31646,090.0 080.0,090.0,080.0,461.000,464.747,,6.3684,,6.3697,,6.3691,34.2913,,34.2925,34.2917,,34.2936,34.2931,0.3169,,0.3975,0.3511,0.3174,,0.3882,0.3404,0.3458,13.779,16.9034,16.5856,13.801,20.0099,15.8467,16.2162,0.0361,,,,0.5985,,0.0000,,26.9507,,26.9508,,,,,,,,,,,6.3268,6.3280,0.8749,116.363,4.604,4.611,,,,,,,,,,,,
CalCOFI,2105SH,016,,2105_016u,07-May-2021 14:24:28,07-May-2021 06:24:28,31.75110,-121.31646,090.0 080.0,090.0,080.0,460.000,463.737,,6.3736,,6.3732,,6.3734,34.2918,,34.2930,34.2929,,34.2948,34.2939,0.3132,,0.3936,0.3472,0.3173,,0.3881,0.3403,0.3438,13.619,16.7361,16.4183,13.798,19.8371,15.8436,16.1310,0.0364,,,,0.5988,,0.0000,,26.9504,,26.9514,,,,,,,,,,,6.3320,6.3316,0.8749,116.386,4.551,4.611,,,,,,,,,,,,